User: anonymous   Login
Location: Archamps
(46.1365°N, 6.1329°E)
Time: 08:58:54
(UTC+00:00)
Language:

CSL-04 Rocket - Orbit

View from above orbital plane
View from above orbital plane
View from above satellite
View from above satellite

Ground track
Ground track

The orbit data is extracted from the following two-line orbital elements,

1 25732U 99025C   24114.15662226  .00000350  00000-0  19113-3 0  9992
2 25732  98.7573 160.0450 0037866 152.1865 278.6484 14.17943608291143
Epoch (UTC): 23 April 2024 03:45:32
Eccentricity: 0.0037866
inclination: 98.7573°
perigee height: 805 km
apogee height: 859 km
right ascension of ascending node: 160.0450°
argument of perigee: 152.1865°
revolutions per day: 14.17943608
mean anomaly at epoch: 278.6484°
orbit number at epoch: 29114

The dashed part of the orbit path shows where the satellite is in the earth's shadow,  

DLR